Time,TemperatureF,DewpointF,PressureIn,WindDirection,WindDirectionDegrees,WindSpeedMPH,WindSpeedGustMPH,Humidity,HourlyPrecipIn,Conditions,Clouds,dailyrainin,SoftwareType,DateUTC
2013-12-15 00:00:00,28.5,13.1,30.24,NW,323,7.0,25.0,52,0.00,,---,0.00,VWS V14.01,2013-12-15 07:00:00,
2013-12-15 00:01:00,28.5,13.1,30.24,NW,323,7.0,25.0,52,0.00,,---,0.00,VWS V14.01,2013-12-15 07:01:00,
2013-12-15 00:10:00,28.1,14.0,30.24,NW,324,13.0,22.0,55,0.00,,---,0.00,VWS V14.01,2013-12-15 07:10:00,
2013-12-15 00:11:00,28.1,14.0,30.24,NW,324,13.0,22.0,55,0.00,,---,0.00,VWS V14.01,2013-12-15 07:11:00,
2013-12-15 00:20:00,28.5,13.6,30.23,NNW,337,11.0,21.0,53,0.00,,---,0.00,VWS V14.01,2013-12-15 07:20:00,
2013-12-15 00:21:00,28.5,13.6,30.23,NNW,337,11.0,21.0,53,0.00,,---,0.00,VWS V14.01,2013-12-15 07:21:00,
2013-12-15 00:30:00,28.9,14.4,30.23,NW,315,14.0,18.0,54,0.00,,---,0.00,VWS V14.01,2013-12-15 07:30:00,
2013-12-15 00:31:00,28.9,14.4,30.23,NW,315,14.0,18.0,54,0.00,,---,0.00,VWS V14.01,2013-12-15 07:31:00,
2013-12-15 00:40:00,27.5,12.6,30.23,NW,310,0.0,19.0,53,0.00,,---,0.00,VWS V14.01,2013-12-15 07:40:00,
2013-12-15 00:41:00,27.5,12.6,30.23,NW,310,0.0,19.0,53,0.00,,---,0.00,VWS V14.01,2013-12-15 07:41:00,
2013-12-15 00:50:00,23.1,10.9,30.28,West,263,5.0,13.0,59,0.00,,---,0.00,VWS V14.01,2013-12-15 07:50:00,
2013-12-15 00:51:00,23.1,10.9,30.28,West,263,5.0,13.0,59,0.00,,---,0.00,VWS V14.01,2013-12-15 07:51:00,
2013-12-15 01:00:00,26.1,12.6,30.24,NW,315,7.0,12.0,56,0.00,,---,0.00,VWS V14.01,2013-12-15 08:00:00,
2013-12-15 01:01:00,26.1,12.6,30.24,NW,315,7.0,12.0,56,0.00,,---,0.00,VWS V14.01,2013-12-15 08:01:00,
2013-12-15 01:10:00,24.0,11.0,30.24,NW,313,0.0,7.0,57,0.00,,---,0.00,VWS V14.01,2013-12-15 08:10:00,
2013-12-15 01:11:00,24.0,11.0,30.24,NW,313,0.0,7.0,57,0.00,,---,0.00,VWS V14.01,2013-12-15 08:11:00,
2013-12-15 01:20:00,22.0,10.6,30.25,WNW,299,0.0,2.0,61,0.00,,---,0.00,VWS V14.01,2013-12-15 08:20:00,
2013-12-15 01:21:00,22.0,10.6,30.25,WNW,299,0.0,2.0,61,0.00,,---,0.00,VWS V14.01,2013-12-15 08:21:00,
2013-12-15 01:30:00,20.7,9.8,30.28,West,273,0.0,9.0,62,0.00,,---,0.00,VWS V14.01,2013-12-15 08:30:00,
2013-12-15 01:31:00,20.7,9.8,30.28,West,273,0.0,9.0,62,0.00,,---,0.00,VWS V14.01,2013-12-15 08:31:00,
2013-12-15 01:40:00,20.4,9.8,30.28,West,272,0.0,0.0,63,0.00,,---,0.00,VWS V14.01,2013-12-15 08:40:00,
2013-12-15 01:41:00,20.4,9.8,30.28,West,272,0.0,0.0,63,0.00,,---,0.00,VWS V14.01,2013-12-15 08:41:00,
2013-12-15 01:50:00,19.7,9.5,30.28,West,273,0.0,0.0,64,0.00,,---,0.00,VWS V14.01,2013-12-15 08:50:00,
2013-12-15 01:51:00,19.7,9.5,30.28,West,273,0.0,0.0,64,0.00,,---,0.00,VWS V14.01,2013-12-15 08:51:00,
2013-12-15 02:00:00,19.4,9.2,30.30,West,269,0.0,11.0,64,0.00,,---,0.00,VWS V14.01,2013-12-15 09:00:00,
2013-12-15 02:01:00,19.4,9.2,30.30,West,269,0.0,11.0,64,0.00,,---,0.00,VWS V14.01,2013-12-15 09:01:00,
2013-12-15 02:10:00,20.1,9.5,30.30,West,269,9.0,10.0,63,0.00,,---,0.00,VWS V14.01,2013-12-15 09:10:00,
2013-12-15 02:11:00,20.1,9.5,30.30,West,269,9.0,10.0,63,0.00,,---,0.00,VWS V14.01,2013-12-15 09:11:00,
2013-12-15 02:20:00,20.6,10.7,30.30,West,268,8.0,10.0,65,0.00,,---,0.00,VWS V14.01,2013-12-15 09:20:00,
2013-12-15 02:21:00,20.6,10.7,30.30,West,268,8.0,10.0,65,0.00,,---,0.00,VWS V14.01,2013-12-15 09:21:00,
2013-12-15 02:30:00,21.7,11.1,30.29,WNW,291,6.0,12.0,63,0.00,,---,0.00,VWS V14.01,2013-12-15 09:30:00,
2013-12-15 02:31:00,21.7,11.1,30.29,WNW,291,6.0,12.0,63,0.00,,---,0.00,VWS V14.01,2013-12-15 09:31:00,
2013-12-15 02:40:00,28.9,12.6,30.21,NW,317,18.0,23.0,50,0.00,,---,0.00,VWS V14.01,2013-12-15 09:40:00,
2013-12-15 02:41:00,28.9,12.6,30.21,NW,317,18.0,23.0,50,0.00,,---,0.00,VWS V14.01,2013-12-15 09:41:00,
2013-12-15 02:50:00,28.3,12.9,30.23,NW,325,16.0,23.0,52,0.00,,---,0.00,VWS V14.01,2013-12-15 09:50:00,
2013-12-15 02:51:00,28.3,12.9,30.23,NW,325,16.0,23.0,52,0.00,,---,0.00,VWS V14.01,2013-12-15 09:51:00,
2013-12-15 03:00:00,30.0,13.2,30.20,WNW,284,16.0,28.0,49,0.00,,---,0.00,VWS V14.01,2013-12-15 10:00:00,
2013-12-15 03:01:00,30.0,13.2,30.20,WNW,284,16.0,28.0,49,0.00,,---,0.00,VWS V14.01,2013-12-15 10:01:00,
2013-12-15 03:10:00,30.0,13.2,30.21,NW,306,0.0,28.0,49,0.00,,---,0.00,VWS V14.01,2013-12-15 10:10:00,
2013-12-15 03:11:00,30.0,13.2,30.21,NW,306,0.0,28.0,49,0.00,,---,0.00,VWS V14.01,2013-12-15 10:11:00,
2013-12-15 03:20:00,28.5,12.7,30.23,WNW,286,12.0,20.0,51,0.00,,---,0.00,VWS V14.01,2013-12-15 10:20:00,
2013-12-15 03:21:00,28.5,12.7,30.23,WNW,286,12.0,20.0,51,0.00,,---,0.00,VWS V14.01,2013-12-15 10:21:00,
2013-12-15 03:30:00,29.4,13.1,30.22,North,355,5.0,23.0,50,0.00,,---,0.00,VWS V14.01,2013-12-15 10:30:00,
2013-12-15 03:31:00,29.4,13.1,30.22,North,355,5.0,23.0,50,0.00,,---,0.00,VWS V14.01,2013-12-15 10:31:00,
2013-12-15 03:40:00,28.9,13.1,30.23,North,360,20.0,23.0,51,0.00,,---,0.00,VWS V14.01,2013-12-15 10:40:00,
2013-12-15 03:41:00,28.9,13.1,30.23,North,360,20.0,23.0,51,0.00,,---,0.00,VWS V14.01,2013-12-15 10:41:00,
2013-12-15 03:50:00,29.0,12.7,30.22,NNW,330,6.0,22.0,50,0.00,,---,0.00,VWS V14.01,2013-12-15 10:50:00,
2013-12-15 03:51:00,29.0,12.7,30.22,NNW,330,6.0,22.0,50,0.00,,---,0.00,VWS V14.01,2013-12-15 10:51:00,
2013-12-15 04:00:00,29.2,13.3,30.21,North,355,15.0,22.0,51,0.00,,---,0.00,VWS V14.01,2013-12-15 11:00:00,
2013-12-15 04:01:00,29.2,13.3,30.21,North,355,15.0,22.0,51,0.00,,---,0.00,VWS V14.01,2013-12-15 11:01:00,
2013-12-15 04:10:00,28.2,12.4,30.23,NNW,348,5.0,33.0,51,0.00,,---,0.00,VWS V14.01,2013-12-15 11:10:00,
2013-12-15 04:11:00,28.2,12.4,30.23,NNW,348,5.0,33.0,51,0.00,,---,0.00,VWS V14.01,2013-12-15 11:11:00,
2013-12-15 04:20:00,29.4,13.5,30.24,WNW,297,5.0,14.0,51,0.00,,---,0.00,VWS V14.01,2013-12-15 11:20:00,
2013-12-15 04:21:00,29.4,13.5,30.24,WNW,297,5.0,14.0,51,0.00,,---,0.00,VWS V14.01,2013-12-15 11:21:00,
2013-12-15 04:30:00,29.8,13.0,30.21,East,95,0.0,11.0,49,0.00,,---,0.00,VWS V14.01,2013-12-15 11:30:00,
2013-12-15 04:31:00,29.8,13.0,30.21,East,95,0.0,11.0,49,0.00,,---,0.00,VWS V14.01,2013-12-15 11:31:00,
2013-12-15 04:40:00,29.1,13.2,30.22,NNW,329,8.0,20.0,51,0.00,,---,0.00,VWS V14.01,2013-12-15 11:40:00,
2013-12-15 04:41:00,29.1,13.2,30.22,NNW,329,8.0,20.0,51,0.00,,---,0.00,VWS V14.01,2013-12-15 11:41:00,
2013-12-15 04:50:00,28.5,13.6,30.22,NNW,343,19.0,24.0,53,0.00,,---,0.00,VWS V14.01,2013-12-15 11:50:00,
2013-12-15 04:51:00,28.5,13.6,30.22,NNW,343,19.0,24.0,53,0.00,,---,0.00,VWS V14.01,2013-12-15 11:51:00,
2013-12-15 05:00:00,29.2,13.8,30.23,North,350,31.0,31.0,52,0.00,,---,0.00,VWS V14.01,2013-12-15 12:00:00,
2013-12-15 05:01:00,29.2,13.8,30.23,North,350,31.0,31.0,52,0.00,,---,0.00,VWS V14.01,2013-12-15 12:01:00,
2013-12-15 05:10:00,28.5,14.0,30.24,NNE,19,10.0,31.0,54,0.00,,---,0.00,VWS V14.01,2013-12-15 12:10:00,
2013-12-15 05:11:00,28.5,14.0,30.24,NNE,19,10.0,31.0,54,0.00,,---,0.00,VWS V14.01,2013-12-15 12:11:00,
2013-12-15 05:20:00,29.3,14.7,30.22,NNW,346,12.0,34.0,54,0.00,,---,0.00,VWS V14.01,2013-12-15 12:20:00,
2013-12-15 05:21:00,29.3,14.7,30.22,NNW,346,12.0,34.0,54,0.00,,---,0.00,VWS V14.01,2013-12-15 12:21:00,
2013-12-15 05:30:00,30.2,14.3,30.21,NW,319,11.0,23.0,51,0.00,,---,0.00,VWS V14.01,2013-12-15 12:30:00,
2013-12-15 05:31:00,30.2,14.3,30.21,NW,319,11.0,23.0,51,0.00,,---,0.00,VWS V14.01,2013-12-15 12:31:00,
2013-12-15 05:40:00,29.7,14.7,30.22,NW,315,11.0,27.0,53,0.00,,---,0.00,VWS V14.01,2013-12-15 12:40:00,
2013-12-15 05:41:00,29.7,14.7,30.22,NW,315,11.0,27.0,53,0.00,,---,0.00,VWS V14.01,2013-12-15 12:41:00,
2013-12-15 05:50:00,28.4,14.7,30.24,NW,315,14.0,29.0,56,0.00,,---,0.00,VWS V14.01,2013-12-15 12:50:00,
2013-12-15 05:51:00,28.4,14.7,30.24,NW,315,14.0,29.0,56,0.00,,---,0.00,VWS V14.01,2013-12-15 12:51:00,
2013-12-15 06:00:00,29.2,15.1,30.24,North,5,6.0,25.0,55,0.00,,---,0.00,VWS V14.01,2013-12-15 13:00:00,
2013-12-15 06:01:00,29.2,15.1,30.24,North,5,6.0,25.0,55,0.00,,---,0.00,VWS V14.01,2013-12-15 13:01:00,
2013-12-15 06:10:00,28.3,14.6,30.24,NW,313,0.0,17.0,56,0.00,,---,0.00,VWS V14.01,2013-12-15 13:10:00,
2013-12-15 06:11:00,28.3,14.6,30.24,NW,313,0.0,17.0,56,0.00,,---,0.00,VWS V14.01,2013-12-15 13:11:00,
2013-12-15 06:20:00,25.5,12.4,30.25,NW,313,6.0,9.0,57,0.00,,---,0.00,VWS V14.01,2013-12-15 13:20:00,
2013-12-15 06:21:00,25.5,12.4,30.25,NW,313,6.0,9.0,57,0.00,,---,0.00,VWS V14.01,2013-12-15 13:21:00,
2013-12-15 06:30:00,24.3,12.4,30.28,NW,312,0.0,7.0,60,0.00,,---,0.00,VWS V14.01,2013-12-15 13:30:00,
2013-12-15 06:31:00,24.3,12.4,30.28,NW,312,0.0,7.0,60,0.00,,---,0.00,VWS V14.01,2013-12-15 13:31:00,
2013-12-15 06:40:00,29.5,15.8,30.22,NNE,15,10.0,32.0,56,0.00,,---,0.00,VWS V14.01,2013-12-15 13:40:00,
2013-12-15 06:41:00,29.5,15.8,30.22,NNE,15,10.0,32.0,56,0.00,,---,0.00,VWS V14.01,2013-12-15 13:41:00,
2013-12-15 06:50:00,28.2,14.5,30.24,NNE,29,0.0,19.0,56,0.00,,---,0.00,VWS V14.01,2013-12-15 13:50:00,
2013-12-15 06:51:00,28.2,14.5,30.24,NNE,29,0.0,19.0,56,0.00,,---,0.00,VWS V14.01,2013-12-15 13:51:00,
2013-12-15 07:00:00,26.1,12.6,30.26,WNW,291,6.0,14.0,56,0.00,,---,0.00,VWS V14.01,2013-12-15 14:00:00,
2013-12-15 07:01:00,26.1,12.6,30.26,WNW,291,6.0,14.0,56,0.00,,---,0.00,VWS V14.01,2013-12-15 14:01:00,
2013-12-15 07:10:00,23.5,12.0,30.32,WNW,292,0.0,13.0,61,0.00,,---,0.00,VWS V14.01,2013-12-15 14:10:00,
2013-12-15 07:11:00,23.5,12.0,30.32,WNW,292,0.0,13.0,61,0.00,,---,0.00,VWS V14.01,2013-12-15 14:11:00,
2013-12-15 07:20:00,22.8,11.8,30.35,West,281,0.0,3.0,62,0.00,,---,0.00,VWS V14.01,2013-12-15 14:20:00,
2013-12-15 07:21:00,22.8,11.8,30.35,West,281,0.0,3.0,62,0.00,,---,0.00,VWS V14.01,2013-12-15 14:21:00,
2013-12-15 07:30:00,22.3,11.6,30.34,West,280,0.0,0.0,63,0.00,,---,0.00,VWS V14.01,2013-12-15 14:30:00,
2013-12-15 07:31:00,22.3,11.6,30.34,West,280,0.0,0.0,63,0.00,,---,0.00,VWS V14.01,2013-12-15 14:31:00,
2013-12-15 07:40:00,24.5,13.4,30.33,West,281,0.0,3.0,62,0.00,,---,0.00,VWS V14.01,2013-12-15 14:40:00,
2013-12-15 07:41:00,24.5,13.4,30.33,West,281,0.0,3.0,62,0.00,,---,0.00,VWS V14.01,2013-12-15 14:41:00,
2013-12-15 07:50:00,24.8,12.9,30.35,West,279,3.0,9.0,60,0.00,,---,0.00,VWS V14.01,2013-12-15 14:50:00,
2013-12-15 07:51:00,24.8,12.9,30.35,West,279,3.0,9.0,60,0.00,,---,0.00,VWS V14.01,2013-12-15 14:51:00,
2013-12-15 08:00:00,25.3,13.0,30.36,West,279,3.0,3.0,59,0.00,,---,0.00,VWS V14.01,2013-12-15 15:00:00,
2013-12-15 08:01:00,25.3,13.0,30.36,West,279,3.0,3.0,59,0.00,,---,0.00,VWS V14.01,2013-12-15 15:01:00,
2013-12-15 08:10:00,25.6,13.7,30.35,West,279,0.0,7.0,60,0.00,,---,0.00,VWS V14.01,2013-12-15 15:10:00,
2013-12-15 08:11:00,25.6,13.7,30.35,West,279,0.0,7.0,60,0.00,,---,0.00,VWS V14.01,2013-12-15 15:11:00,
2013-12-15 08:20:00,26.2,13.4,30.35,West,279,0.0,4.0,58,0.00,,---,0.00,VWS V14.01,2013-12-15 15:20:00,
2013-12-15 08:21:00,26.2,13.4,30.35,West,279,0.0,4.0,58,0.00,,---,0.00,VWS V14.01,2013-12-15 15:21:00,
2013-12-15 08:30:00,27.4,15.0,30.34,West,280,3.0,6.0,59,0.00,,---,0.00,VWS V14.01,2013-12-15 15:30:00,
2013-12-15 08:31:00,27.4,15.0,30.34,West,280,3.0,6.0,59,0.00,,---,0.00,VWS V14.01,2013-12-15 15:31:00,
2013-12-15 08:40:00,28.8,14.3,30.33,West,279,6.0,10.0,54,0.00,,---,0.00,VWS V14.01,2013-12-15 15:40:00,
2013-12-15 08:41:00,28.8,14.3,30.33,West,279,6.0,10.0,54,0.00,,---,0.00,VWS V14.01,2013-12-15 15:41:00,
2013-12-15 08:50:00,28.4,14.7,30.36,West,281,0.0,10.0,56,0.00,,---,0.00,VWS V14.01,2013-12-15 15:50:00,
2013-12-15 08:51:00,28.4,14.7,30.36,West,281,0.0,10.0,56,0.00,,---,0.00,VWS V14.01,2013-12-15 15:51:00,
2013-12-15 09:00:00,30.1,15.1,30.34,West,281,7.0,9.0,53,0.00,,---,0.00,VWS V14.01,2013-12-15 16:00:00,
2013-12-15 09:01:00,30.1,15.1,30.34,West,281,7.0,9.0,53,0.00,,---,0.00,VWS V14.01,2013-12-15 16:01:00,
2013-12-15 09:10:00,30.7,16.0,30.32,WNW,295,0.0,12.0,54,0.00,,---,0.00,VWS V14.01,2013-12-15 16:10:00,
2013-12-15 09:11:00,30.7,16.0,30.32,WNW,295,0.0,12.0,54,0.00,,---,0.00,VWS V14.01,2013-12-15 16:11:00,
2013-12-15 09:20:00,32.0,16.4,30.32,NW,306,11.0,19.0,52,0.00,,---,0.00,VWS V14.01,2013-12-15 16:20:00,
2013-12-15 09:21:00,32.0,16.4,30.32,NW,306,11.0,19.0,52,0.00,,---,0.00,VWS V14.01,2013-12-15 16:21:00,
2013-12-15 09:30:00,32.4,17.2,30.32,NNW,327,8.0,16.0,53,0.00,,---,0.00,VWS V14.01,2013-12-15 16:30:00,
2013-12-15 09:31:00,32.4,17.2,30.32,NNW,327,8.0,16.0,53,0.00,,---,0.00,VWS V14.01,2013-12-15 16:31:00,
2013-12-15 09:40:00,33.0,17.8,30.29,NNW,342,25.0,30.0,53,0.00,,---,0.00,VWS V14.01,2013-12-15 16:40:00,
2013-12-15 09:41:00,33.0,17.8,30.29,NNW,342,25.0,30.0,53,0.00,,---,0.00,VWS V14.01,2013-12-15 16:41:00,
2013-12-15 09:50:00,33.0,18.6,30.30,NNW,344,15.0,26.0,55,0.00,,---,0.00,VWS V14.01,2013-12-15 16:50:00,
2013-12-15 09:51:00,33.0,18.6,30.30,NNW,344,15.0,26.0,55,0.00,,---,0.00,VWS V14.01,2013-12-15 16:51:00,
2013-12-15 10:00:00,33.5,18.2,30.29,North,355,20.0,27.0,53,0.00,,---,0.00,VWS V14.01,2013-12-15 17:00:00,
2013-12-15 10:01:00,33.5,18.2,30.29,North,355,20.0,27.0,53,0.00,,---,0.00,VWS V14.01,2013-12-15 17:01:00,
2013-12-15 10:10:00,33.8,18.0,30.29,NNW,330,14.0,31.0,52,0.00,,---,0.00,VWS V14.01,2013-12-15 17:10:00,
2013-12-15 10:11:00,33.8,18.0,30.29,NNW,330,14.0,31.0,52,0.00,,---,0.00,VWS V14.01,2013-12-15 17:11:00,
2013-12-15 10:20:00,34.3,18.5,30.29,NNW,329,14.0,28.0,52,0.00,,---,0.00,VWS V14.01,2013-12-15 17:20:00,
2013-12-15 10:21:00,34.3,18.5,30.29,NNW,329,14.0,28.0,52,0.00,,---,0.00,VWS V14.01,2013-12-15 17:21:00,
2013-12-15 10:30:00,34.4,18.2,30.28,NNW,332,17.0,32.0,51,0.00,,---,0.00,VWS V14.01,2013-12-15 17:30:00,
2013-12-15 10:31:00,34.4,18.2,30.28,NNW,332,17.0,32.0,51,0.00,,---,0.00,VWS V14.01,2013-12-15 17:31:00,
2013-12-15 10:40:00,34.7,18.4,30.25,NNW,338,20.0,32.0,51,0.00,,---,0.00,VWS V14.01,2013-12-15 17:40:00,
2013-12-15 10:41:00,34.7,18.4,30.25,NNW,338,20.0,32.0,51,0.00,,---,0.00,VWS V14.01,2013-12-15 17:41:00,
2013-12-15 10:50:00,34.9,18.6,30.25,NNW,337,28.0,31.0,51,0.00,,---,0.00,VWS V14.01,2013-12-15 17:50:00,
2013-12-15 10:51:00,34.9,18.6,30.25,NNW,337,28.0,31.0,51,0.00,,---,0.00,VWS V14.01,2013-12-15 17:51:00,
2013-12-15 11:00:00,35.0,19.2,30.25,NNW,348,23.0,30.0,52,0.00,,---,0.00,VWS V14.01,2013-12-15 18:00:00,
2013-12-15 11:01:00,35.0,19.2,30.25,NNW,348,23.0,30.0,52,0.00,,---,0.00,VWS V14.01,2013-12-15 18:01:00,
2013-12-15 11:10:00,35.5,18.7,30.22,NW,324,17.0,33.0,50,0.00,,---,0.00,VWS V14.01,2013-12-15 18:10:00,
2013-12-15 11:11:00,35.5,18.7,30.22,NW,324,17.0,33.0,50,0.00,,---,0.00,VWS V14.01,2013-12-15 18:11:00,
2013-12-15 11:20:00,35.9,18.1,30.22,NNW,348,19.0,29.0,48,0.00,,---,0.00,VWS V14.01,2013-12-15 18:20:00,
2013-12-15 11:21:00,35.9,18.1,30.22,NNW,348,19.0,29.0,48,0.00,,---,0.00,VWS V14.01,2013-12-15 18:21:00,
2013-12-15 11:30:00,35.8,19.5,30.21,NNW,335,19.0,26.0,51,0.00,,---,0.00,VWS V14.01,2013-12-15 18:30:00,
2013-12-15 11:31:00,35.8,19.5,30.21,NNW,335,19.0,26.0,51,0.00,,---,0.00,VWS V14.01,2013-12-15 18:31:00,
2013-12-15 11:40:00,36.2,19.4,30.21,NNW,337,18.0,30.0,50,0.00,,---,0.00,VWS V14.01,2013-12-15 18:40:00,
2013-12-15 11:41:00,36.2,19.4,30.21,NNW,337,18.0,30.0,50,0.00,,---,0.00,VWS V14.01,2013-12-15 18:41:00,
2013-12-15 11:50:00,36.6,19.7,30.19,North,355,20.0,28.0,50,0.00,,---,0.00,VWS V14.01,2013-12-15 18:50:00,
2013-12-15 11:51:00,36.6,19.7,30.19,North,355,20.0,28.0,50,0.00,,---,0.00,VWS V14.01,2013-12-15 18:51:00,
2013-12-15 12:00:00,37.0,19.1,30.19,NNW,342,21.0,23.0,48,0.00,,---,0.00,VWS V14.01,2013-12-15 19:00:00,
2013-12-15 12:01:00,37.0,19.1,30.19,NNW,342,21.0,23.0,48,0.00,,---,0.00,VWS V14.01,2013-12-15 19:01:00,
2013-12-15 12:10:00,38.0,18.6,30.20,NW,311,15.0,25.0,45,0.00,,---,0.00,VWS V14.01,2013-12-15 19:10:00,
2013-12-15 12:11:00,38.0,18.6,30.20,NW,311,15.0,25.0,45,0.00,,---,0.00,VWS V14.01,2013-12-15 19:11:00,
2013-12-15 12:20:00,38.0,19.6,30.20,NNW,340,17.0,23.0,47,0.00,,---,0.00,VWS V14.01,2013-12-15 19:20:00,
2013-12-15 12:21:00,38.0,19.6,30.20,NNW,340,17.0,23.0,47,0.00,,---,0.00,VWS V14.01,2013-12-15 19:21:00,
2013-12-15 12:30:00,38.1,20.2,30.19,NNW,346,19.0,25.0,48,0.00,,---,0.00,VWS V14.01,2013-12-15 19:30:00,
2013-12-15 12:31:00,38.1,20.2,30.19,NNW,346,19.0,25.0,48,0.00,,---,0.00,VWS V14.01,2013-12-15 19:31:00,
2013-12-15 12:40:00,38.3,20.4,30.19,NNW,337,16.0,21.0,48,0.00,,---,0.00,VWS V14.01,2013-12-15 19:40:00,
2013-12-15 12:41:00,38.3,20.4,30.19,NNW,337,16.0,21.0,48,0.00,,---,0.00,VWS V14.01,2013-12-15 19:41:00,
2013-12-15 12:50:00,38.8,20.3,30.18,NNW,341,12.0,21.0,47,0.00,,---,0.00,VWS V14.01,2013-12-15 19:50:00,
2013-12-15 12:51:00,38.8,20.3,30.18,NNW,341,12.0,21.0,47,0.00,,---,0.00,VWS V14.01,2013-12-15 19:51:00,
2013-12-15 13:00:00,38.9,20.4,30.18,North,355,15.0,18.0,47,0.00,,---,0.00,VWS V14.01,2013-12-15 20:00:00,
2013-12-15 13:01:00,38.9,20.4,30.18,North,355,15.0,18.0,47,0.00,,---,0.00,VWS V14.01,2013-12-15 20:01:00,
2013-12-15 13:10:00,39.9,19.2,30.24,North,360,13.0,20.0,43,0.00,,---,0.00,VWS V14.01,2013-12-15 20:10:00,
2013-12-15 13:11:00,39.9,19.2,30.24,North,360,13.0,20.0,43,0.00,,---,0.00,VWS V14.01,2013-12-15 20:11:00,
2013-12-15 13:20:00,39.6,20.0,30.24,NNW,348,16.0,16.0,45,0.00,,---,0.00,VWS V14.01,2013-12-15 20:20:00,
2013-12-15 13:21:00,39.6,20.0,30.24,NNW,348,16.0,16.0,45,0.00,,---,0.00,VWS V14.01,2013-12-15 20:21:00,
2013-12-15 13:30:00,40.0,19.9,30.24,NNW,342,18.0,21.0,44,0.00,,---,0.00,VWS V14.01,2013-12-15 20:30:00,
2013-12-15 13:31:00,40.0,19.9,30.24,NNW,342,18.0,21.0,44,0.00,,---,0.00,VWS V14.01,2013-12-15 20:31:00,
2013-12-15 13:40:00,40.2,19.0,30.23,NNW,345,12.0,18.0,42,0.00,,---,0.00,VWS V14.01,2013-12-15 20:40:00,
2013-12-15 13:41:00,40.2,19.0,30.23,NNW,345,12.0,18.0,42,0.00,,---,0.00,VWS V14.01,2013-12-15 20:41:00,
2013-12-15 13:50:00,39.5,19.9,30.23,NNW,340,13.0,19.0,45,0.00,,---,0.00,VWS V14.01,2013-12-15 20:50:00,
2013-12-15 13:51:00,39.5,19.9,30.23,NNW,340,13.0,19.0,45,0.00,,---,0.00,VWS V14.01,2013-12-15 20:51:00,
2013-12-15 14:00:00,39.8,18.6,30.23,NNW,337,14.0,21.0,42,0.00,,---,0.00,VWS V14.01,2013-12-15 21:00:00,
2013-12-15 14:01:00,39.8,18.6,30.23,NNW,337,14.0,21.0,42,0.00,,---,0.00,VWS V14.01,2013-12-15 21:01:00,
2013-12-15 14:10:00,39.8,19.1,30.12,NNW,343,9.0,21.0,43,0.00,,---,0.00,VWS V14.01,2013-12-15 21:10:00,
2013-12-15 14:11:00,39.8,19.1,30.12,NNW,343,9.0,21.0,43,0.00,,---,0.00,VWS V14.01,2013-12-15 21:11:00,
2013-12-15 14:20:00,39.7,19.0,30.11,North,355,12.0,19.0,43,0.00,,---,0.00,VWS V14.01,2013-12-15 21:20:00,
2013-12-15 14:21:00,39.7,19.0,30.11,North,355,12.0,19.0,43,0.00,,---,0.00,VWS V14.01,2013-12-15 21:21:00,
2013-12-15 14:30:00,40.4,18.6,30.11,North,350,12.0,22.0,41,0.00,,---,0.00,VWS V14.01,2013-12-15 21:30:00,
2013-12-15 14:31:00,40.4,18.6,30.11,North,350,12.0,22.0,41,0.00,,---,0.00,VWS V14.01,2013-12-15 21:31:00,
2013-12-15 14:40:00,39.8,19.1,30.11,North,355,12.0,19.0,43,0.00,,---,0.00,VWS V14.01,2013-12-15 21:40:00,
2013-12-15 14:41:00,39.8,19.1,30.11,North,355,12.0,19.0,43,0.00,,---,0.00,VWS V14.01,2013-12-15 21:41:00,
2013-12-15 14:50:00,40.2,19.0,30.11,North,350,16.0,18.0,42,0.00,,---,0.00,VWS V14.01,2013-12-15 21:50:00,
2013-12-15 14:51:00,40.2,19.0,30.11,North,350,16.0,18.0,42,0.00,,---,0.00,VWS V14.01,2013-12-15 21:51:00,
2013-12-15 15:00:00,40.2,18.4,30.12,North,355,12.0,18.0,41,0.00,,---,0.00,VWS V14.01,2013-12-15 22:00:00,
2013-12-15 15:01:00,40.2,18.4,30.12,North,355,12.0,18.0,41,0.00,,---,0.00,VWS V14.01,2013-12-15 22:01:00,
2013-12-15 15:10:00,40.2,17.2,30.14,North,360,15.0,22.0,39,0.00,,---,0.00,VWS V14.01,2013-12-15 22:10:00,
2013-12-15 15:11:00,40.2,17.2,30.14,North,360,15.0,22.0,39,0.00,,---,0.00,VWS V14.01,2013-12-15 22:11:00,
2013-12-15 15:20:00,40.0,17.6,30.14,North,5,10.0,20.0,40,0.00,,---,0.00,VWS V14.01,2013-12-15 22:20:00,
2013-12-15 15:21:00,40.0,17.6,30.14,North,5,10.0,20.0,40,0.00,,---,0.00,VWS V14.01,2013-12-15 22:21:00,
2013-12-15 15:30:00,40.6,18.2,30.12,NNW,344,14.0,26.0,40,0.00,,---,0.00,VWS V14.01,2013-12-15 22:30:00,
2013-12-15 15:31:00,40.6,18.2,30.12,NNW,344,14.0,26.0,40,0.00,,---,0.00,VWS V14.01,2013-12-15 22:31:00,
2013-12-15 15:40:00,39.6,16.7,30.15,NNW,338,16.0,19.0,39,0.00,,---,0.00,VWS V14.01,2013-12-15 22:40:00,
2013-12-15 15:41:00,39.6,16.7,30.15,NNW,338,16.0,19.0,39,0.00,,---,0.00,VWS V14.01,2013-12-15 22:41:00,
2013-12-15 15:50:00,39.4,17.1,30.15,North,360,14.0,23.0,40,0.00,,---,0.00,VWS V14.01,2013-12-15 22:50:00,
2013-12-15 15:51:00,39.4,17.1,30.15,North,360,14.0,23.0,40,0.00,,---,0.00,VWS V14.01,2013-12-15 22:51:00,
2013-12-15 16:00:00,38.9,16.1,30.16,NNW,330,9.0,22.0,39,0.00,,---,0.00,VWS V14.01,2013-12-15 23:00:00,
2013-12-15 16:01:00,38.9,16.1,30.16,NNW,330,9.0,22.0,39,0.00,,---,0.00,VWS V14.01,2013-12-15 23:01:00,
2013-12-15 16:10:00,38.0,15.8,30.18,NW,323,11.0,25.0,40,0.00,,---,0.00,VWS V14.01,2013-12-15 23:10:00,
2013-12-15 16:11:00,38.0,15.8,30.18,NW,323,11.0,25.0,40,0.00,,---,0.00,VWS V14.01,2013-12-15 23:11:00,
2013-12-15 16:20:00,38.4,15.6,30.18,NNW,342,10.0,26.0,39,0.00,,---,0.00,VWS V14.01,2013-12-15 23:20:00,
2013-12-15 16:21:00,38.4,15.6,30.18,NNW,342,10.0,26.0,39,0.00,,---,0.00,VWS V14.01,2013-12-15 23:21:00,
2013-12-15 16:30:00,36.5,16.7,30.18,North,355,22.0,23.0,44,0.00,,---,0.00,VWS V14.01,2013-12-15 23:30:00,
2013-12-15 16:31:00,36.5,16.7,30.18,North,355,22.0,23.0,44,0.00,,---,0.00,VWS V14.01,2013-12-15 23:31:00,
2013-12-15 16:40:00,37.4,15.3,30.19,NW,322,12.0,23.0,40,0.00,,---,0.00,VWS V14.01,2013-12-15 23:40:00,
2013-12-15 16:41:00,37.4,15.3,30.19,NW,322,12.0,23.0,40,0.00,,---,0.00,VWS V14.01,2013-12-15 23:41:00,
2013-12-15 16:50:00,36.4,15.5,30.21,NNW,333,21.0,26.0,42,0.00,,---,0.00,VWS V14.01,2013-12-15 23:50:00,
2013-12-15 16:51:00,36.4,15.5,30.21,NNW,333,21.0,26.0,42,0.00,,---,0.00,VWS V14.01,2013-12-15 23:51:00,
2013-12-15 17:00:00,35.7,15.4,30.21,NNW,336,13.0,24.0,43,0.00,,---,0.00,VWS V14.01,2013-12-16 00:00:00,
2013-12-15 17:01:00,35.7,15.4,30.21,NNW,336,13.0,24.0,43,0.00,,---,0.00,VWS V14.01,2013-12-16 00:01:00,
2013-12-15 17:10:00,36.8,14.8,30.19,NW,326,17.0,31.0,40,0.00,,---,0.00,VWS V14.01,2013-12-16 00:10:00,
2013-12-15 17:11:00,36.8,14.8,30.19,NW,326,17.0,31.0,40,0.00,,---,0.00,VWS V14.01,2013-12-16 00:11:00,
2013-12-15 17:20:00,35.2,15.0,30.22,North,360,15.0,24.0,43,0.00,,---,0.00,VWS V14.01,2013-12-16 00:20:00,
2013-12-15 17:30:00,34.8,14.6,30.22,NNW,340,17.0,24.0,43,0.00,,---,0.00,VWS V14.01,2013-12-16 00:30:00,
2013-12-15 17:40:00,34.5,14.3,30.22,NNW,335,12.0,18.0,43,0.00,,---,0.00,VWS V14.01,2013-12-16 00:40:00,
2013-12-15 17:50:00,33.8,14.2,30.24,NNW,347,14.0,18.0,44,0.00,,---,0.00,VWS V14.01,2013-12-16 00:50:00,
2013-12-15 18:00:00,34.0,13.9,30.23,NNE,14,12.0,17.0,43,0.00,,---,0.00,VWS V14.01,2013-12-16 01:00:00,
2013-12-15 18:20:00,29.0,12.2,30.30,North,5,0.0,0.0,49,0.00,,---,0.00,VWS V14.01,2013-12-16 01:20:00,
2013-12-15 18:21:00,29.0,12.2,30.30,North,5,0.0,0.0,49,0.00,,---,0.00,VWS V14.01,2013-12-16 01:21:00,
2013-12-15 18:31:00,26.4,12.0,30.34,North,360,0.0,0.0,54,0.00,,---,0.00,VWS V14.01,2013-12-16 01:31:00,
2013-12-15 18:41:00,28.5,12.7,30.33,NNW,344,0.0,3.0,51,0.00,,---,0.00,VWS V14.01,2013-12-16 01:41:00,
2013-12-15 18:51:00,27.5,11.8,30.33,WNW,300,5.0,9.0,51,0.00,,---,0.00,VWS V14.01,2013-12-16 01:51:00,
2013-12-15 19:01:00,28.3,12.5,30.33,WNW,286,5.0,9.0,51,0.00,,---,0.00,VWS V14.01,2013-12-16 02:01:00,
2013-12-15 19:11:00,26.3,11.5,30.38,WNW,285,4.0,9.0,53,0.00,,---,0.00,VWS V14.01,2013-12-16 02:11:00,
2013-12-15 19:21:00,28.9,12.1,30.33,WNW,285,0.0,7.0,49,0.00,,---,0.00,VWS V14.01,2013-12-16 02:21:00,
2013-12-15 19:31:00,28.4,11.7,30.34,WNW,285,0.0,0.0,49,0.00,,---,0.00,VWS V14.01,2013-12-16 02:31:00,
2013-12-15 19:41:00,28.1,11.9,30.34,WNW,285,0.0,0.0,50,0.00,,---,0.00,VWS V14.01,2013-12-16 02:41:00,
2013-12-15 19:51:00,28.2,11.5,30.33,WNW,285,0.0,0.0,49,0.00,,---,0.00,VWS V14.01,2013-12-16 02:51:00,
2013-12-15 20:01:00,28.5,11.3,30.31,WNW,285,0.0,0.0,48,0.00,,---,0.00,VWS V14.01,2013-12-16 03:01:00,
2013-12-15 20:11:00,26.6,11.4,30.30,WNW,284,0.0,0.0,52,0.00,,---,0.00,VWS V14.01,2013-12-16 03:11:00,
2013-12-15 20:21:00,28.6,11.9,30.27,WNW,285,0.0,0.0,49,0.00,,---,0.00,VWS V14.01,2013-12-16 03:21:00,
2013-12-15 20:31:00,30.3,13.0,30.25,WNW,284,0.0,7.0,48,0.00,,---,0.00,VWS V14.01,2013-12-16 03:31:00,
2013-12-15 20:41:00,30.3,12.0,30.25,WNW,284,0.0,6.0,46,0.00,,---,0.00,VWS V14.01,2013-12-16 03:41:00,
2013-12-15 20:51:00,30.3,12.0,30.25,WNW,283,0.0,11.0,46,0.00,,---,0.00,VWS V14.01,2013-12-16 03:51:00,
2013-12-15 21:01:00,27.9,11.2,30.28,WNW,283,0.0,7.0,49,0.00,,---,0.00,VWS V14.01,2013-12-16 04:01:00,
2013-12-15 21:11:00,26.9,11.2,30.25,SW,234,0.0,11.0,51,0.00,,---,0.00,VWS V14.01,2013-12-16 04:11:00,
2013-12-15 21:21:00,27.7,11.9,30.26,SSW,203,6.0,10.0,51,0.00,,---,0.00,VWS V14.01,2013-12-16 04:21:00,
2013-12-15 21:31:00,27.2,11.0,30.24,South,190,2.0,6.0,50,0.00,,---,0.00,VWS V14.01,2013-12-16 04:31:00,
2013-12-15 21:41:00,27.1,11.8,30.26,South,191,0.0,7.0,52,0.00,,---,0.00,VWS V14.01,2013-12-16 04:41:00,
2013-12-15 21:51:00,27.7,11.5,30.24,SSW,192,0.0,0.0,50,0.00,,---,0.00,VWS V14.01,2013-12-16 04:51:00,
2013-12-15 22:01:00,27.4,11.2,30.24,SSW,192,0.0,0.0,50,0.00,,---,0.00,VWS V14.01,2013-12-16 05:01:00,
2013-12-15 22:11:00,27.8,12.0,30.25,South,191,0.0,3.0,51,0.00,,---,0.00,VWS V14.01,2013-12-16 05:11:00,
2013-12-15 22:21:00,30.1,12.3,30.23,SSE,165,0.0,12.0,47,0.00,,---,0.00,VWS V14.01,2013-12-16 05:21:00,
2013-12-15 22:31:00,28.6,11.9,30.23,South,171,0.0,4.0,49,0.00,,---,0.00,VWS V14.01,2013-12-16 05:31:00,
2013-12-15 22:41:00,27.2,11.5,30.25,South,171,0.0,0.0,51,0.00,,---,0.00,VWS V14.01,2013-12-16 05:41:00,
2013-12-15 22:51:00,25.1,10.8,30.27,South,171,0.0,4.0,54,0.00,,---,0.00,VWS V14.01,2013-12-16 05:51:00,
2013-12-15 23:01:00,25.6,11.3,30.27,South,171,0.0,0.0,54,0.00,,---,0.00,VWS V14.01,2013-12-16 06:01:00,
2013-12-15 23:11:00,25.9,11.1,30.25,South,171,0.0,0.0,53,0.00,,---,0.00,VWS V14.01,2013-12-16 06:11:00,
2013-12-15 23:21:00,25.7,11.4,30.25,SSE,167,3.0,6.0,54,0.00,,---,0.00,VWS V14.01,2013-12-16 06:21:00,
2013-12-15 23:33:00,25.7,10.9,30.23,SSE,168,0.0,3.0,53,0.00,,---,0.00,VWS V14.01,2013-12-16 06:33:00,
2013-12-15 23:41:00,25.6,10.9,30.23,SSE,157,0.0,4.0,53,0.00,,---,0.00,VWS V14.01,2013-12-16 06:41:00,
2013-12-15 23:51:00,27.6,12.7,30.20,SSE,162,0.0,14.0,53,0.00,,---,0.00,VWS V14.01,2013-12-16 06:51:00,